Погода в Ханаме

Южная Корея     37°32′16″N   127°12′16″E
темп.,
°C
ветер,
м/с
пор.,
м/с
влажн.,
%
обл.,
%
осадки,
мм/ч
давл.,
гПа
погр.,
м
18 сентября, сб
сб1800:00+17св22840 0.0 101250
03:00+16всв11886 0.0 101343
06:00+15всв119019 0.0 101331
09:00+21всв12705 0.0 1014395
12:00+26всв125322 0.0 10141305
15:00+28в124769 0.0 10131888
18:00+23юв2266100 0.0 1014116
21:00+21ююв11724 0.0 101516
19 сентября, вс
вс1900:00+19в118213 0.0 101614
03:00+18в118866 0.0 101628
06:00+17в119099 0.0 101729
09:00+22в127063 0.0 1017362
12:00+26всв115499 0.0 10161284
15:00+26в115698 0.0 1014895
18:00+23вюв116542 0.0 101522
21:00+20в117341 0.0 101615
20 сентября, пн
пн2000:00+19в227514 0.0 101541
03:00+17в117613 0.0 101435
06:00+16в228197 0.0 101557
09:00+21в256898 0.0 1014487
12:00+24юв4753100 0.0 10131175
15:00+26юв594999 0.0 10101457
18:00+23юв6126243 0.0 10081005
21:00+21юв41269100 0.0 1008677
21 сентября, вт
вт2100:00+18всв1295100 12.4 1006120
03:00+18вюв2598100 25.3 1005294
06:00+18юв1298100 8.3 1005173
09:00+20ю1290100 8.8 1006331
12:00+23з4677100 1.5 10051066
15:00+24зюз566477 1.8 10051402
18:00+21зюз37790 0.2 1006496
21:00+19юз249114 0.3 1007198
22 сентября, ср
ср2200:00+18ю139314 0.1 1008122
03:00+17юв239743 0.4 1007115
06:00+17ююз1299100 5.8 1008101
09:00+18ююв2396100 15.3 1008303
12:00+21ю358674 1.7 1008663
15:00+23з477420 4.3 10071359
18:00+20з49740 0.6 1009603
21:00+17сз38810 0.6 1012493